Hourly Weather Kribi

Today, 25 September, Friday

Time Temperature Precipitation Wind Pressure Humidity
00:00 +25°C° 0.1 mm 3 mps 760 mmHg 97%
01:00 +25°C° 0.1 mm 3 mps 759 mmHg 98%
02:00 +25°C° 0.1 mm 3 mps 759 mmHg 97%
03:00 +25°C° 0.1 mm 3 mps 759 mmHg 97%
04:00 +25°C° 0.1 mm 3 mps 758 mmHg 97%
05:00 +26°C° 0.3 mm 2 mps 759 mmHg 97%
06:00 +26°C° 0.3 mm 2 mps 760 mmHg 96%
07:00 +26°C° 0.3 mm 2 mps 760 mmHg 96%
08:00 +27°C° 2.1 mm 2 mps 760 mmHg 94%
09:00 +27°C° 2.1 mm 2 mps 760 mmHg 91%
10:00 +28°C° 2.1 mm 2 mps 760 mmHg 89%
11:00 +28°C° 1.2 mm 3 mps 760 mmHg 89%
12:00 +28°C° 1.2 mm 3 mps 759 mmHg 90%
13:00 +28°C° 1.2 mm 3 mps 759 mmHg 90%
14:00 +27°C° 0.4 mm 4 mps 758 mmHg 91%
15:00 +27°C° 0.4 mm 4 mps 758 mmHg 93%
16:00 +27°C° 0.4 mm 4 mps 757 mmHg 94%
17:00 +26°C° 0.2 mm 4 mps 757 mmHg 95%
18:00 +26°C° 0.2 mm 4 mps 758 mmHg 96%
19:00 +26°C° 0.2 mm 3 mps 758 mmHg 97%
20:00 +26°C° 0.2 mm 4 mps 758 mmHg 97%
21:00 +26°C° 0.2 mm 4 mps 759 mmHg 97%
22:00 +26°C° 0.2 mm 4 mps 759 mmHg 97%
23:00 +25°C° 0.2 mm 4 mps 759 mmHg 97%

Tomorrow, 26 September, Saturday

Time Temperature Precipitation Wind Pressure Humidity
00:00 +25°C° 0.2 mm 4 mps 758 mmHg 97%
01:00 +25°C° 0.2 mm 4 mps 758 mmHg 97%
02:00 +25°C° 1.1 mm 4 mps 758 mmHg 97%
03:00 +25°C° 1.1 mm 4 mps 758 mmHg 97%
04:00 +25°C° 1.1 mm 5 mps 757 mmHg 97%
05:00 +25°C° 2.1 mm 4 mps 758 mmHg 97%
06:00 +25°C° 2.1 mm 4 mps 758 mmHg 96%
07:00 +25°C° 2.1 mm 4 mps 758 mmHg 96%
08:00 +26°C° 1.8 mm 5 mps 759 mmHg 95%
09:00 +27°C° 1.8 mm 5 mps 759 mmHg 93%
10:00 +27°C° 1.8 mm 5 mps 759 mmHg 91%
11:00 +28°C° 1.3 mm 6 mps 758 mmHg 90%
12:00 +28°C° 1.3 mm 6 mps 758 mmHg 89%
13:00 +28°C° 1.3 mm 6 mps 757 mmHg 87%
14:00 +28°C° 0.8 mm 6 mps 757 mmHg 86%
15:00 +28°C° 0.8 mm 6 mps 756 mmHg 86%
16:00 +27°C° 0.8 mm 6 mps 756 mmHg 85%
17:00 +27°C° 0.9 mm 6 mps 756 mmHg 87%
18:00 +26°C° 0.9 mm 5 mps 757 mmHg 90%
19:00 +25°C° 0.9 mm 5 mps 758 mmHg 92%
20:00 +25°C° 0.5 mm 5 mps 758 mmHg 93%
21:00 +25°C° 0.5 mm 4 mps 758 mmHg 95%
22:00 +25°C° 0.5 mm 4 mps 759 mmHg 96%
23:00 +25°C° 0.2 mm 4 mps 758 mmHg 96%

Day after tomorrow, 27 September, Sunday

Time Temperature Precipitation Wind Pressure Humidity
00:00 +23°C° 0.2 mm 4 mps 758 mmHg 96%
01:00 +23°C° 0.2 mm 4 mps 758 mmHg 97%
02:00 +23°C° 0.1 mm 4 mps 758 mmHg 96%
03:00 +25°C° 0.1 mm 4 mps 757 mmHg 96%
04:00 +25°C° 0.1 mm 4 mps 757 mmHg 96%
05:00 +25°C° 0.3 mm 4 mps 757 mmHg 96%
06:00 +25°C° 0.3 mm 4 mps 758 mmHg 96%
07:00 +25°C° 0.3 mm 4 mps 758 mmHg 96%
08:00 +26°C° 0.6 mm 4 mps 758 mmHg 92%
09:00 +27°C° 0.6 mm 4 mps 759 mmHg 87%
10:00 +28°C° 0.6 mm 4 mps 759 mmHg 83%
11:00 +29°C° 0.8 mm 4 mps 758 mmHg 81%
12:00 +29°C° 0.8 mm 4 mps 758 mmHg 78%
13:00 +30°C° 0.8 mm 5 mps 757 mmHg 75%
14:00 +29°C° 0.2 mm 5 mps 757 mmHg 76%
15:00 +29°C° 0.2 mm 5 mps 756 mmHg 76%
16:00 +29°C° 0.2 mm 4 mps 756 mmHg 77%
17:00 +27°C° 0 mm 4 mps 756 mmHg 81%
18:00 +26°C° 0 mm 4 mps 757 mmHg 86%
19:00 +25°C° 0 mm 3 mps 757 mmHg 90%
20:00 +25°C° 0.1 mm 3 mps 757 mmHg 91%
21:00 +25°C° 0.1 mm 3 mps 758 mmHg 92%
22:00 +25°C° 0.1 mm 3 mps 758 mmHg 92%
23:00 +25°C° 0.1 mm 3 mps 758 mmHg 93%

28 September, Monday

Time Temperature Precipitation Wind Pressure Humidity
00:00 +25°C° 0.1 mm 4 mps 758 mmHg 93%
01:00 +25°C° 0.1 mm 4 mps 758 mmHg 93%
02:00 +25°C° 0.1 mm 3 mps 757 mmHg 94%
03:00 +25°C° 0.1 mm 3 mps 757 mmHg 94%
04:00 +25°C° 0.1 mm 3 mps 757 mmHg 94%
05:00 +25°C° 0.1 mm 3 mps 758 mmHg 95%
06:00 +25°C° 0.1 mm 3 mps 758 mmHg 95%
07:00 +25°C° 0.1 mm 3 mps 758 mmHg 95%
08:00 +26°C° 0.1 mm 3 mps 758 mmHg 88%
09:00 +28°C° 0.1 mm 4 mps 759 mmHg 82%
10:00 +29°C° 0.1 mm 4 mps 759 mmHg 75%
11:00 +30°C° 0.1 mm 4 mps 758 mmHg 73%
12:00 +30°C° 0.1 mm 5 mps 758 mmHg 70%
13:00 +32°C° 0.1 mm 5 mps 757 mmHg 67%
14:00 +30°C° 0 mm 5 mps 756 mmHg 68%
15:00 +30°C° 0 mm 5 mps 756 mmHg 70%
16:00 +29°C° 0 mm 5 mps 755 mmHg 71%
17:00 +28°C° 0 mm 5 mps 756 mmHg 77%
18:00 +27°C° 0 mm 4 mps 756 mmHg 83%
19:00 +25°C° 0 mm 4 mps 757 mmHg 89%
20:00 +25°C° 0 mm 3 mps 757 mmHg 91%
21:00 +25°C° 0 mm 3 mps 758 mmHg 93%
22:00 +25°C° 0 mm 3 mps 759 mmHg 95%
23:00 +25°C° 0.1 mm 3 mps 759 mmHg 95%

29 September, Tuesday

Time Temperature Precipitation Wind Pressure Humidity
00:00 +25°C° 0.1 mm 3 mps 758 mmHg 94%
01:00 +25°C° 0.1 mm 3 mps 758 mmHg 94%
02:00 +25°C° 0 mm 3 mps 758 mmHg 94%
03:00 +25°C° 0 mm 3 mps 758 mmHg 95%
04:00 +24°C° 0 mm 3 mps 757 mmHg 95%
05:00 +25°C° 0.1 mm 3 mps 758 mmHg 94%
06:00 +25°C° 0.1 mm 3 mps 758 mmHg 93%
07:00 +25°C° 0.1 mm 3 mps 758 mmHg 92%
08:00 +26°C° 0.1 mm 3 mps 759 mmHg 87%
09:00 +28°C° 0.1 mm 3 mps 759 mmHg 81%
10:00 +29°C° 0.1 mm 4 mps 760 mmHg 75%
11:00 +29°C° 0.1 mm 4 mps 759 mmHg 73%
12:00 +30°C° 0.1 mm 4 mps 758 mmHg 72%
13:00 +30°C° 0.1 mm 5 mps 757 mmHg 70%
14:00 +30°C° 0 mm 5 mps 757 mmHg 70%
15:00 +30°C° 0 mm 5 mps 756 mmHg 70%
16:00 +30°C° 0 mm 4 mps 756 mmHg 70%
17:00 +28°C° 0 mm 4 mps 756 mmHg 77%
18:00 +27°C° 0 mm 4 mps 757 mmHg 83%
19:00 +25°C° 0 mm 3 mps 757 mmHg 90%
20:00 +25°C° 0 mm 3 mps 758 mmHg 92%
21:00 +25°C° 0 mm 3 mps 758 mmHg 94%
22:00 +25°C° 0 mm 3 mps 759 mmHg 95%
23:00 +25°C° 0 mm 3 mps 758 mmHg 95%

30 September, Wednesday

Time Temperature Precipitation Wind Pressure Humidity
00:00 +24°C° 0 mm 2 mps 758 mmHg 95%
01:00 +24°C° 0 mm 2 mps 757 mmHg 95%
02:00 +24°C° 0 mm 2 mps 757 mmHg 96%
03:00 +24°C° 0 mm 2 mps 757 mmHg 96%
04:00 +24°C° 0 mm 2 mps 757 mmHg 96%
05:00 +24°C° 0.1 mm 2 mps 757 mmHg 95%
06:00 +25°C° 0.1 mm 2 mps 757 mmHg 93%
07:00 +25°C° 0.1 mm 2 mps 758 mmHg 92%
08:00 +26°C° 0.1 mm 2 mps 758 mmHg 85%
09:00 +28°C° 0.1 mm 3 mps 759 mmHg 79%
10:00 +29°C° 0.1 mm 3 mps 759 mmHg 72%
11:00 +30°C° 0 mm 3 mps 758 mmHg 69%
12:00 +32°C° 0 mm 4 mps 757 mmHg 65%
13:00 +33°C° 0 mm 4 mps 756 mmHg 61%
14:00 +32°C° 0 mm 4 mps 756 mmHg 63%
15:00 +32°C° 0 mm 4 mps 755 mmHg 65%
16:00 +30°C° 0 mm 4 mps 755 mmHg 67%
17:00 +29°C° 0 mm 4 mps 755 mmHg 74%
18:00 +27°C° 0 mm 3 mps 756 mmHg 81%
19:00 +26°C° 0 mm 3 mps 756 mmHg 89%
20:00 +26°C° 0 mm 3 mps 757 mmHg 91%
21:00 +25°C° 0 mm 3 mps 757 mmHg 93%
22:00 +25°C° 0 mm 3 mps 758 mmHg 95%
23:00 +25°C° 0.1 mm 3 mps 757 mmHg 96%
Show more